GEFSCGP_prec_meanprecacc_186.txt.gz
Total_Precipitation_Accumulation
0.28 0.62 0.88 0.76 0.70 0.73 0.70 0.65 0.66 0.58 0.53 0.53 0.48 0.42 0.43 0.39 0.37 0.33 0.33 0.34 0.29 0.27 0.30 0.29 0.24 0.27 0.31 0.41 0.52 0.70 1.05 1.47 1.65 1.54 1.49 1.55 1.66 1.64 1.55 1.52 1.50 1.55 1.55 1.55
0.33 0.42 0.35 0.40 0.46 0.56 0.65 0.68 0.67 0.60 0.44 0.41 0.40 0.35 0.33 0.32 0.33 0.30 0.28 0.31 0.27 0.25 0.24 0.22 0.18 0.20 0.26 0.42 0.57 0.70 1.00 1.43 1.62 1.73 1.85 2.06 2.24 2.13 2.00 1.98 1.93 2.01 2.03 2.19
0.29 0.26 0.22 0.33 0.48 0.59 0.64 0.64 0.62 0.56 0.41 0.35 0.33 0.33 0.27 0.27 0.28 0.27 0.26 0.28 0.25 0.21 0.20 0.21 0.18 0.20 0.25 0.36 0.47 0.62 0.81 1.09 1.44 1.71 1.99 2.27 2.50 2.48 2.37 2.20 2.17 2.23 2.30 2.46
0.28 0.25 0.25 0.32 0.39 0.48 0.65 0.44 0.40 0.39 0.47 0.47 0.35 0.48 0.32 0.29 0.30 0.30 0.28 0.27 0.26 0.23 0.23 0.26 0.23 0.23 0.26 0.31 0.39 0.53 0.72 0.95 1.20 1.45 1.87 2.32 2.62 2.72 2.63 2.52 2.47 2.43 2.46 2.51
0.25 0.23 0.25 0.29 0.30 0.36 0.48 0.37 0.36 0.37 0.43 0.39 0.28 0.37 0.33 0.27 0.30 0.31 0.29 0.27 0.25 0.24 0.25 0.29 0.29 0.31 0.33 0.33 0.37 0.48 0.63 0.86 1.11 1.33 1.70 2.11 2.40 2.63 2.78 2.61 2.48 2.50 2.53 2.56
0.23 0.18 0.19 0.24 0.27 0.30 0.38 0.37 0.35 0.34 0.40 0.44 0.22 0.32 0.42 0.28 0.26 0.27 0.25 0.24 0.25 0.26 0.31 0.37 0.46 0.49 0.48 0.42 0.44 0.53 0.61 0.76 0.92 1.07 1.29 1.53 1.88 2.16 2.51 2.50 2.43 2.55 2.54 2.47
0.25 0.21 0.19 0.20 0.26 0.29 0.34 0.48 0.58 0.57 0.56 0.40 0.19 0.32 0.46 0.33 0.25 0.25 0.26 0.25 0.26 0.30 0.34 0.42 0.57 0.62 0.63 0.54 0.48 0.50 0.62 0.68 0.75 0.86 0.97 1.13 1.39 1.57 1.95 2.27 2.25 2.17 2.23 2.29
0.26 0.26 0.17 0.17 0.21 0.25 0.28 0.43 0.64 0.70 0.62 0.43 0.32 0.49 0.54 0.38 0.31 0.27 0.26 0.29 0.33 0.36 0.42 0.59 0.75 0.77 0.76 0.67 0.56 0.55 0.65 0.70 0.71 0.76 0.80 0.90 1.04 1.15 1.33 1.55 1.67 1.71 1.78 2.01
0.26 0.22 0.15 0.16 0.15 0.16 0.23 0.29 0.34 0.48 0.45 0.46 0.49 0.59 0.53 0.33 0.31 0.33 0.34 0.38 0.49 0.56 0.61 0.74 0.88 0.90 0.82 0.74 0.65 0.63 0.68 0.78 0.78 0.78 0.79 0.89 0.94 0.96 1.07 1.11 1.26 1.46 1.50 1.57
0.27 0.23 0.15 0.15 0.16 0.14 0.16 0.21 0.35 0.52 0.63 0.64 0.54 0.58 0.56 0.44 0.43 0.42 0.47 0.52 0.64 0.74 0.80 0.89 1.03 1.04 0.89 0.76 0.66 0.63 0.66 0.78 0.96 1.08 1.03 0.97 1.04 1.11 1.33 1.35 1.20 1.20 1.38 1.46
0.37 0.32 0.18 0.16 0.17 0.18 0.20 0.30 0.42 0.56 0.56 0.75 0.84 0.79 0.64 0.62 0.63 0.64 0.66 0.72 0.79 0.91 0.92 0.90 0.98 1.05 0.93 0.74 0.66 0.60 0.61 0.72 0.86 0.90 0.96 0.95 0.99 1.09 1.37 1.59 1.53 1.35 1.36 1.40
0.35 0.45 0.29 0.19 0.21 0.23 0.29 0.40 0.59 0.86 0.79 0.74 0.89 0.89 0.69 0.62 0.65 0.67 0.67 0.66 0.71 0.83 0.84 0.86 0.89 0.86 0.76 0.61 0.53 0.50 0.50 0.62 0.74 0.73 0.78 0.86 0.87 0.97 1.09 1.21 1.23 1.17 1.10 1.08
0.45 0.61 0.57 0.45 0.46 0.39 0.46 0.49 0.56 0.73 0.82 0.83 0.93 0.92 0.65 0.56 0.51 0.54 0.57 0.60 0.63 0.63 0.63 0.64 0.64 0.61 0.60 0.57 0.53 0.48 0.48 0.56 0.63 0.66 0.72 0.79 0.81 0.83 0.85 0.86 0.79 0.83 0.86 0.94
0.43 0.52 0.61 0.66 0.66 0.64 0.62 0.52 0.48 0.66 0.88 0.82 0.79 0.77 0.63 0.55 0.51 0.54 0.56 0.56 0.60 0.54 0.47 0.46 0.48 0.49 0.51 0.52 0.51 0.48 0.46 0.53 0.62 0.77 0.84 0.89 0.89 0.88 0.89 0.87 0.82 0.82 0.84 0.90
0.31 0.34 0.32 0.31 0.33 0.43 0.48 0.41 0.41 0.49 0.56 0.71 0.69 0.67 0.55 0.51 0.55 0.59 0.56 0.51 0.48 0.42 0.37 0.37 0.37 0.39 0.39 0.40 0.41 0.42 0.41 0.48 0.55 0.69 0.80 0.85 0.87 0.89 0.85 0.79 0.77 0.81 0.78 0.77
0.21 0.25 0.23 0.21 0.22 0.29 0.36 0.37 0.38 0.38 0.42 0.53 0.59 0.58 0.45 0.41 0.40 0.41 0.39 0.32 0.32 0.32 0.28 0.26 0.26 0.28 0.27 0.26 0.27 0.28 0.35 0.44 0.50 0.58 0.70 0.85 0.89 0.81 0.77 0.70 0.69 0.73 0.71 0.68
0.18 0.28 0.37 0.31 0.26 0.28 0.52 0.53 0.53 0.55 0.49 0.49 0.43 0.34 0.22 0.22 0.24 0.28 0.28 0.28 0.31 0.28 0.23 0.21 0.21 0.21 0.22 0.24 0.27 0.30 0.37 0.46 0.46 0.53 0.66 0.85 0.84 0.72 0.66 0.72 0.76 0.73 0.71 0.72
0.17 0.28 0.40 0.35 0.37 0.66 0.86 0.62 0.60 0.56 0.35 0.21 0.15 0.13 0.13 0.18 0.18 0.17 0.18 0.21 0.23 0.22 0.18 0.16 0.15 0.14 0.15 0.18 0.23 0.25 0.29 0.33 0.37 0.43 0.53 0.69 0.70 0.68 0.71 0.71 0.69 0.65 0.60 0.59
0.18 0.30 0.44 0.39 0.43 0.66 0.66 0.43 0.35 0.35 0.25 0.10 0.08 0.09 0.11 0.13 0.12 0.10 0.11 0.13 0.13 0.13 0.09 0.08 0.08 0.07 0.07 0.07 0.09 0.12 0.14 0.17 0.22 0.29 0.38 0.48 0.52 0.56 0.58 0.57 0.57 0.53 0.50 0.52
0.31 0.38 0.56 0.52 0.63 0.65 0.35 0.18 0.17 0.24 0.30 0.10 0.05 0.05 0.05 0.06 0.10 0.08 0.06 0.07 0.08 0.07 0.06 0.04 0.03 0.03 0.02 0.02 0.03 0.05 0.08 0.11 0.15 0.21 0.28 0.36 0.39 0.43 0.44 0.49 0.52 0.52 0.49 0.47
0.30 0.39 0.49 0.53 0.73 0.59 0.24 0.12 0.12 0.24 0.31 0.11 0.04 0.02 0.02 0.03 0.05 0.04 0.05 0.05 0.06 0.05 0.04 0.03 0.02 0.02 0.01 0.02 0.03 0.03 0.07 0.09 0.10 0.13 0.18 0.24 0.32 0.39 0.46 0.53 0.54 0.56 0.54 0.49
0.34 0.37 0.38 0.46 0.59 0.55 0.23 0.16 0.20 0.21 0.11 0.06 0.03 0.02 0.02 0.02 0.02 0.02 0.03 0.03 0.05 0.05 0.04 0.03 0.03 0.03 0.02 0.03 0.03 0.03 0.04 0.06 0.07 0.09 0.14 0.20 0.28 0.35 0.43 0.53 0.56 0.56 0.56 0.55
0.35 0.38 0.39 0.48 0.61 0.42 0.25 0.22 0.21 0.15 0.10 0.05 0.02 0.02 0.02 0.01 0.01 0.01 0.02 0.03 0.04 0.04 0.04 0.04 0.03 0.03 0.02 0.02 0.03 0.02 0.03 0.03 0.04 0.06 0.09 0.14 0.18 0.22 0.27 0.35 0.43 0.49 0.53 0.55
0.21 0.22 0.27 0.36 0.35 0.22 0.20 0.18 0.14 0.09 0.07 0.03 0.01 0.01 0.01 0.01 0.01 0.01 0.01 0.02 0.02 0.03 0.03 0.04 0.03 0.03 0.02 0.02 0.02 0.02 0.02 0.02 0.02 0.04 0.06 0.08 0.09 0.09 0.12 0.21 0.30 0.36 0.44 0.50
0.17 0.17 0.22 0.28 0.28 0.17 0.12 0.11 0.08 0.07 0.05 0.02 0.01 0.01 0.01 0.01 0.01 0.01 0.01 0.01 0.02 0.03 0.02 0.03 0.02 0.03 0.02 0.02 0.02 0.02 0.03 0.03 0.03 0.03 0.04 0.05 0.06 0.08 0.10 0.16 0.24 0.28 0.36 0.39
0.11 0.16 0.22 0.29 0.26 0.21 0.10 0.08 0.06 0.06 0.04 0.03 0.01 0.01 0.01 0.01 0.01 0.01 0.01 0.01 0.02 0.02 0.03 0.03 0.03 0.03 0.03 0.02 0.02 0.03 0.05 0.05 0.07 0.09 0.05 0.05 0.06 0.08 0.10 0.13 0.15 0.15 0.18 0.19

GEFSCGP_prec_meanprecacc_192.txt.gz
Total_Precipitation_Accumulation
0.29 0.63 0.88 0.77 0.72 0.74 0.70 0.66 0.66 0.58 0.54 0.55 0.49 0.42 0.44 0.40 0.40 0.36 0.36 0.37 0.32 0.28 0.31 0.30 0.26 0.30 0.33 0.42 0.53 0.71 1.07 1.48 1.66 1.55 1.51 1.57 1.66 1.65 1.55 1.52 1.50 1.55 1.55 1.55
0.33 0.43 0.36 0.41 0.46 0.57 0.66 0.68 0.68 0.60 0.45 0.42 0.41 0.36 0.34 0.33 0.35 0.31 0.29 0.32 0.30 0.27 0.24 0.22 0.19 0.22 0.27 0.43 0.58 0.71 1.00 1.44 1.63 1.74 1.85 2.07 2.24 2.13 2.00 1.98 1.93 2.01 2.03 2.19
0.30 0.26 0.22 0.33 0.48 0.59 0.64 0.65 0.63 0.57 0.42 0.36 0.34 0.34 0.28 0.28 0.28 0.27 0.26 0.28 0.26 0.22 0.21 0.21 0.19 0.21 0.25 0.36 0.48 0.63 0.82 1.10 1.44 1.72 1.99 2.28 2.50 2.48 2.37 2.20 2.17 2.23 2.30 2.46
0.30 0.26 0.25 0.32 0.40 0.49 0.65 0.45 0.41 0.40 0.48 0.47 0.35 0.49 0.33 0.29 0.30 0.30 0.29 0.27 0.26 0.23 0.23 0.26 0.23 0.23 0.26 0.32 0.40 0.54 0.73 0.96 1.20 1.45 1.88 2.33 2.62 2.72 2.63 2.52 2.47 2.43 2.46 2.51
0.26 0.23 0.26 0.30 0.31 0.37 0.49 0.38 0.37 0.38 0.44 0.40 0.29 0.37 0.33 0.27 0.30 0.31 0.29 0.27 0.25 0.24 0.26 0.29 0.29 0.31 0.33 0.34 0.38 0.49 0.64 0.87 1.11 1.34 1.70 2.11 2.41 2.63 2.78 2.61 2.48 2.50 2.53 2.56
0.23 0.18 0.19 0.24 0.28 0.31 0.38 0.38 0.36 0.35 0.41 0.45 0.23 0.33 0.42 0.29 0.26 0.27 0.25 0.24 0.25 0.26 0.31 0.37 0.46 0.50 0.49 0.42 0.45 0.54 0.62 0.77 0.93 1.08 1.30 1.54 1.88 2.16 2.51 2.50 2.43 2.55 2.54 2.47
0.25 0.22 0.19 0.20 0.26 0.29 0.35 0.49 0.60 0.60 0.58 0.41 0.19 0.32 0.46 0.33 0.25 0.25 0.26 0.25 0.26 0.30 0.34 0.42 0.57 0.62 0.63 0.54 0.48 0.51 0.63 0.69 0.76 0.87 0.98 1.13 1.39 1.57 1.95 2.27 2.25 2.17 2.23 2.29
0.27 0.27 0.18 0.17 0.21 0.26 0.28 0.44 0.65 0.72 0.63 0.44 0.33 0.49 0.54 0.38 0.31 0.27 0.26 0.29 0.33 0.36 0.42 0.59 0.75 0.77 0.76 0.67 0.56 0.55 0.66 0.71 0.73 0.78 0.81 0.90 1.05 1.16 1.33 1.55 1.68 1.71 1.78 2.01
0.26 0.23 0.16 0.16 0.16 0.17 0.24 0.30 0.34 0.49 0.46 0.47 0.49 0.59 0.53 0.33 0.32 0.33 0.34 0.38 0.49 0.56 0.62 0.74 0.88 0.91 0.82 0.75 0.65 0.63 0.68 0.79 0.79 0.80 0.81 0.90 0.95 0.96 1.07 1.11 1.27 1.46 1.50 1.57
0.28 0.24 0.16 0.16 0.16 0.15 0.16 0.22 0.35 0.54 0.65 0.65 0.54 0.58 0.56 0.44 0.44 0.42 0.47 0.52 0.64 0.74 0.81 0.89 1.03 1.04 0.90 0.77 0.67 0.64 0.67 0.79 0.97 1.09 1.04 0.98 1.05 1.11 1.33 1.35 1.20 1.20 1.38 1.46
0.37 0.33 0.19 0.17 0.17 0.18 0.21 0.31 0.44 0.58 0.58 0.77 0.86 0.79 0.65 0.62 0.63 0.65 0.66 0.72 0.79 0.91 0.92 0.90 0.98 1.05 0.94 0.74 0.66 0.60 0.62 0.73 0.87 0.91 0.97 0.96 1.00 1.10 1.37 1.59 1.53 1.36 1.37 1.40
0.36 0.45 0.30 0.19 0.21 0.24 0.29 0.41 0.60 0.88 0.81 0.75 0.91 0.90 0.70 0.63 0.66 0.68 0.67 0.66 0.71 0.83 0.84 0.86 0.89 0.86 0.77 0.61 0.54 0.50 0.50 0.63 0.74 0.74 0.79 0.87 0.89 0.97 1.09 1.21 1.23 1.18 1.11 1.09
0.45 0.62 0.58 0.46 0.46 0.40 0.46 0.49 0.57 0.74 0.83 0.85 0.95 0.94 0.67 0.58 0.53 0.54 0.57 0.60 0.63 0.64 0.63 0.64 0.64 0.61 0.60 0.57 0.54 0.48 0.49 0.56 0.64 0.67 0.73 0.80 0.82 0.84 0.86 0.87 0.80 0.83 0.87 0.94
0.45 0.53 0.62 0.67 0.66 0.65 0.63 0.53 0.48 0.66 0.89 0.84 0.81 0.79 0.64 0.56 0.52 0.54 0.56 0.57 0.60 0.54 0.47 0.46 0.48 0.49 0.53 0.54 0.52 0.49 0.47 0.54 0.63 0.78 0.85 0.89 0.90 0.89 0.89 0.87 0.82 0.82 0.84 0.90
0.34 0.36 0.32 0.31 0.33 0.43 0.48 0.41 0.41 0.49 0.56 0.71 0.71 0.68 0.55 0.51 0.55 0.59 0.56 0.51 0.49 0.43 0.37 0.37 0.37 0.39 0.39 0.41 0.42 0.42 0.42 0.48 0.56 0.70 0.81 0.86 0.88 0.89 0.86 0.79 0.77 0.82 0.78 0.77
0.22 0.26 0.23 0.22 0.22 0.29 0.36 0.37 0.38 0.38 0.43 0.53 0.60 0.59 0.45 0.42 0.40 0.41 0.39 0.33 0.32 0.32 0.28 0.26 0.26 0.28 0.27 0.27 0.27 0.28 0.36 0.45 0.51 0.60 0.71 0.87 0.90 0.81 0.77 0.70 0.70 0.73 0.71 0.69
0.20 0.29 0.37 0.31 0.26 0.29 0.52 0.53 0.53 0.55 0.49 0.49 0.43 0.34 0.22 0.22 0.24 0.28 0.28 0.28 0.32 0.29 0.23 0.21 0.21 0.21 0.22 0.24 0.28 0.31 0.38 0.47 0.46 0.53 0.67 0.86 0.85 0.72 0.67 0.72 0.77 0.73 0.71 0.72
0.17 0.30 0.42 0.36 0.38 0.66 0.86 0.62 0.60 0.56 0.35 0.21 0.15 0.14 0.13 0.18 0.18 0.17 0.19 0.21 0.24 0.22 0.18 0.16 0.15 0.15 0.15 0.18 0.23 0.26 0.29 0.34 0.37 0.44 0.54 0.70 0.72 0.69 0.71 0.71 0.69 0.65 0.60 0.59
0.19 0.32 0.45 0.39 0.43 0.66 0.67 0.43 0.35 0.35 0.25 0.10 0.08 0.09 0.11 0.13 0.13 0.10 0.12 0.13 0.13 0.13 0.09 0.08 0.08 0.08 0.07 0.07 0.09 0.12 0.14 0.18 0.22 0.30 0.39 0.50 0.53 0.57 0.58 0.57 0.57 0.54 0.50 0.52
0.32 0.39 0.57 0.53 0.64 0.66 0.36 0.19 0.17 0.24 0.31 0.10 0.05 0.05 0.05 0.07 0.11 0.08 0.06 0.07 0.08 0.07 0.06 0.04 0.03 0.03 0.02 0.03 0.04 0.06 0.08 0.11 0.15 0.22 0.29 0.37 0.40 0.43 0.45 0.50 0.52 0.52 0.49 0.48
0.30 0.39 0.49 0.53 0.74 0.61 0.25 0.12 0.13 0.25 0.33 0.12 0.04 0.03 0.03 0.03 0.05 0.04 0.05 0.05 0.06 0.05 0.04 0.03 0.03 0.02 0.02 0.03 0.04 0.04 0.07 0.10 0.11 0.14 0.19 0.25 0.33 0.40 0.47 0.53 0.54 0.56 0.54 0.49
0.35 0.38 0.39 0.47 0.61 0.56 0.24 0.16 0.21 0.21 0.12 0.06 0.03 0.02 0.02 0.02 0.02 0.02 0.03 0.03 0.05 0.05 0.04 0.03 0.03 0.03 0.03 0.04 0.03 0.03 0.05 0.07 0.08 0.10 0.14 0.21 0.29 0.36 0.44 0.54 0.57 0.56 0.56 0.55
0.37 0.39 0.40 0.49 0.62 0.43 0.26 0.23 0.21 0.15 0.10 0.05 0.03 0.02 0.02 0.01 0.01 0.01 0.02 0.03 0.04 0.05 0.04 0.04 0.03 0.03 0.02 0.03 0.03 0.03 0.04 0.04 0.05 0.06 0.10 0.16 0.19 0.23 0.28 0.35 0.43 0.49 0.54 0.55
0.22 0.22 0.27 0.36 0.35 0.22 0.20 0.18 0.14 0.10 0.07 0.03 0.02 0.01 0.01 0.02 0.02 0.01 0.02 0.02 0.03 0.03 0.04 0.04 0.04 0.03 0.02 0.02 0.03 0.03 0.03 0.03 0.03 0.05 0.07 0.09 0.11 0.10 0.13 0.22 0.30 0.37 0.44 0.50
0.17 0.18 0.22 0.28 0.28 0.18 0.13 0.12 0.09 0.07 0.05 0.02 0.01 0.01 0.01 0.02 0.02 0.02 0.02 0.02 0.02 0.03 0.02 0.03 0.03 0.03 0.02 0.02 0.03 0.03 0.03 0.04 0.04 0.04 0.05 0.06 0.07 0.09 0.11 0.17 0.24 0.29 0.37 0.39
0.11 0.16 0.23 0.29 0.26 0.21 0.11 0.08 0.06 0.06 0.05 0.03 0.02 0.01 0.01 0.01 0.01 0.01 0.01 0.01 0.02 0.03 0.03 0.04 0.03 0.03 0.03 0.03 0.02 0.04 0.06 0.05 0.08 0.09 0.06 0.06 0.07 0.09 0.12 0.15 0.16 0.16 0.19 0.19

GEFSCGP_prec_meanprecacc_198.txt.gz
Total_Precipitation_Accumulation
0.29 0.64 0.90 0.79 0.73 0.75 0.71 0.68 0.69 0.59 0.54 0.55 0.50 0.44 0.45 0.44 0.44 0.38 0.37 0.39 0.34 0.30 0.34 0.32 0.28 0.31 0.34 0.43 0.54 0.72 1.08 1.49 1.67 1.57 1.51 1.57 1.67 1.65 1.55 1.53 1.50 1.55 1.55 1.55
0.35 0.45 0.37 0.41 0.46 0.57 0.67 0.71 0.71 0.61 0.45 0.43 0.42 0.37 0.35 0.34 0.37 0.33 0.31 0.33 0.32 0.29 0.26 0.24 0.20 0.23 0.28 0.45 0.59 0.72 1.01 1.45 1.64 1.75 1.86 2.07 2.25 2.14 2.00 1.98 1.93 2.01 2.03 2.19
0.31 0.27 0.22 0.33 0.49 0.60 0.65 0.67 0.64 0.57 0.43 0.36 0.35 0.36 0.30 0.30 0.30 0.29 0.27 0.28 0.27 0.23 0.22 0.22 0.20 0.22 0.27 0.38 0.50 0.64 0.83 1.11 1.45 1.73 2.00 2.28 2.50 2.49 2.37 2.21 2.17 2.23 2.30 2.46
0.31 0.26 0.25 0.32 0.40 0.49 0.66 0.45 0.41 0.40 0.49 0.49 0.37 0.54 0.36 0.31 0.31 0.30 0.29 0.27 0.26 0.24 0.23 0.26 0.24 0.23 0.27 0.33 0.41 0.56 0.74 0.96 1.21 1.46 1.88 2.33 2.63 2.72 2.64 2.52 2.47 2.43 2.46 2.51
0.28 0.23 0.26 0.30 0.31 0.37 0.49 0.38 0.37 0.38 0.44 0.41 0.30 0.40 0.37 0.28 0.32 0.31 0.30 0.27 0.25 0.24 0.26 0.29 0.30 0.32 0.34 0.34 0.38 0.50 0.65 0.87 1.12 1.34 1.71 2.11 2.41 2.63 2.78 2.61 2.48 2.50 2.53 2.56
0.24 0.19 0.20 0.25 0.28 0.31 0.38 0.39 0.36 0.36 0.42 0.47 0.23 0.34 0.45 0.30 0.26 0.27 0.25 0.24 0.25 0.27 0.31 0.37 0.46 0.50 0.49 0.42 0.45 0.54 0.63 0.77 0.93 1.08 1.30 1.54 1.88 2.16 2.51 2.50 2.43 2.55 2.54 2.47
0.26 0.23 0.20 0.21 0.27 0.30 0.35 0.51 0.64 0.64 0.62 0.43 0.19 0.33 0.47 0.33 0.25 0.25 0.26 0.26 0.26 0.30 0.35 0.43 0.57 0.62 0.63 0.54 0.49 0.51 0.64 0.70 0.77 0.88 0.98 1.14 1.39 1.57 1.95 2.27 2.25 2.17 2.23 2.29
0.28 0.29 0.19 0.18 0.21 0.26 0.29 0.46 0.71 0.79 0.68 0.46 0.33 0.49 0.54 0.38 0.31 0.27 0.26 0.29 0.33 0.36 0.42 0.59 0.75 0.77 0.76 0.67 0.57 0.55 0.67 0.72 0.73 0.78 0.82 0.91 1.05 1.16 1.33 1.56 1.68 1.71 1.78 2.01
0.28 0.25 0.17 0.16 0.16 0.17 0.24 0.31 0.36 0.51 0.49 0.51 0.51 0.60 0.54 0.34 0.32 0.33 0.34 0.38 0.49 0.57 0.62 0.74 0.89 0.91 0.82 0.75 0.66 0.63 0.69 0.80 0.80 0.81 0.82 0.91 0.96 0.98 1.09 1.12 1.27 1.46 1.50 1.57
0.30 0.27 0.17 0.16 0.16 0.15 0.16 0.22 0.36 0.56 0.70 0.70 0.57 0.60 0.58 0.45 0.44 0.42 0.47 0.52 0.64 0.74 0.81 0.89 1.03 1.05 0.90 0.77 0.67 0.64 0.68 0.81 0.99 1.11 1.05 0.99 1.05 1.12 1.34 1.37 1.21 1.20 1.39 1.46
0.40 0.37 0.20 0.17 0.17 0.19 0.21 0.31 0.45 0.59 0.60 0.82 0.92 0.83 0.65 0.62 0.63 0.65 0.66 0.72 0.80 0.91 0.92 0.90 0.99 1.06 0.94 0.74 0.66 0.61 0.63 0.74 0.88 0.92 0.98 0.97 1.01 1.10 1.38 1.60 1.55 1.36 1.37 1.41
0.37 0.49 0.33 0.21 0.21 0.24 0.29 0.41 0.61 0.90 0.84 0.78 0.95 0.94 0.70 0.63 0.66 0.68 0.67 0.66 0.71 0.83 0.84 0.86 0.90 0.86 0.77 0.62 0.54 0.50 0.51 0.63 0.75 0.74 0.80 0.88 0.89 0.97 1.09 1.21 1.24 1.18 1.11 1.09
0.46 0.64 0.62 0.50 0.49 0.40 0.47 0.50 0.57 0.74 0.85 0.87 1.00 0.97 0.67 0.58 0.53 0.55 0.57 0.60 0.63 0.64 0.64 0.64 0.65 0.62 0.60 0.58 0.55 0.49 0.49 0.56 0.64 0.67 0.73 0.80 0.82 0.84 0.86 0.87 0.80 0.84 0.87 0.95
0.46 0.54 0.63 0.70 0.69 0.66 0.63 0.53 0.48 0.67 0.91 0.85 0.85 0.80 0.65 0.57 0.53 0.54 0.56 0.57 0.60 0.54 0.47 0.46 0.48 0.49 0.53 0.54 0.53 0.49 0.47 0.54 0.63 0.78 0.85 0.90 0.90 0.89 0.89 0.87 0.83 0.82 0.85 0.90
0.35 0.37 0.33 0.32 0.33 0.44 0.48 0.42 0.41 0.49 0.57 0.72 0.72 0.69 0.56 0.52 0.56 0.59 0.56 0.51 0.49 0.43 0.37 0.37 0.37 0.40 0.40 0.41 0.43 0.43 0.42 0.49 0.57 0.70 0.82 0.86 0.88 0.90 0.86 0.80 0.78 0.82 0.79 0.78
0.23 0.27 0.24 0.22 0.22 0.29 0.36 0.37 0.38 0.38 0.43 0.54 0.60 0.59 0.46 0.43 0.41 0.42 0.39 0.33 0.32 0.33 0.28 0.26 0.26 0.28 0.27 0.27 0.28 0.29 0.37 0.46 0.51 0.60 0.71 0.87 0.90 0.82 0.78 0.71 0.70 0.73 0.72 0.69
0.21 0.30 0.38 0.32 0.27 0.29 0.53 0.53 0.53 0.55 0.49 0.49 0.43 0.35 0.22 0.23 0.25 0.28 0.29 0.29 0.32 0.29 0.24 0.21 0.21 0.22 0.23 0.24 0.28 0.31 0.38 0.47 0.47 0.54 0.68 0.87 0.85 0.73 0.67 0.72 0.77 0.74 0.72 0.73
0.18 0.31 0.43 0.37 0.39 0.68 0.86 0.62 0.60 0.56 0.35 0.21 0.15 0.14 0.13 0.18 0.18 0.17 0.19 0.21 0.24 0.22 0.18 0.17 0.16 0.15 0.16 0.18 0.24 0.27 0.30 0.34 0.38 0.44 0.55 0.71 0.72 0.69 0.72 0.71 0.69 0.65 0.61 0.60
0.19 0.33 0.47 0.41 0.45 0.68 0.67 0.43 0.35 0.35 0.25 0.10 0.08 0.09 0.11 0.13 0.13 0.10 0.12 0.13 0.13 0.13 0.10 0.09 0.09 0.08 0.08 0.07 0.10 0.13 0.15 0.18 0.23 0.30 0.40 0.51 0.54 0.58 0.59 0.57 0.58 0.54 0.50 0.52
0.32 0.40 0.59 0.55 0.66 0.68 0.36 0.19 0.17 0.24 0.31 0.10 0.05 0.05 0.05 0.07 0.11 0.08 0.06 0.07 0.08 0.07 0.06 0.04 0.03 0.03 0.03 0.03 0.05 0.06 0.09 0.12 0.16 0.22 0.29 0.38 0.41 0.44 0.46 0.50 0.53 0.52 0.49 0.48
0.31 0.41 0.51 0.55 0.76 0.62 0.25 0.12 0.13 0.25 0.33 0.12 0.04 0.03 0.03 0.03 0.05 0.04 0.05 0.05 0.06 0.05 0.04 0.03 0.03 0.02 0.02 0.03 0.04 0.04 0.08 0.11 0.12 0.14 0.19 0.26 0.34 0.41 0.48 0.53 0.54 0.57 0.54 0.49
0.36 0.39 0.40 0.48 0.63 0.58 0.24 0.17 0.21 0.22 0.12 0.06 0.03 0.03 0.02 0.02 0.02 0.02 0.03 0.03 0.05 0.05 0.04 0.03 0.03 0.03 0.03 0.04 0.04 0.03 0.06 0.08 0.09 0.10 0.15 0.23 0.31 0.40 0.47 0.55 0.58 0.57 0.57 0.56
0.38 0.39 0.41 0.50 0.63 0.44 0.26 0.23 0.21 0.16 0.11 0.06 0.03 0.02 0.02 0.01 0.01 0.01 0.02 0.03 0.04 0.05 0.04 0.04 0.04 0.03 0.03 0.03 0.04 0.04 0.04 0.05 0.05 0.07 0.11 0.17 0.21 0.25 0.31 0.40 0.49 0.54 0.56 0.57
0.23 0.23 0.28 0.37 0.36 0.23 0.21 0.19 0.14 0.11 0.08 0.04 0.02 0.01 0.02 0.02 0.02 0.01 0.02 0.02 0.03 0.03 0.04 0.04 0.04 0.04 0.03 0.02 0.03 0.04 0.03 0.03 0.04 0.06 0.09 0.11 0.13 0.13 0.15 0.25 0.32 0.39 0.46 0.52
0.19 0.19 0.23 0.29 0.29 0.19 0.13 0.13 0.10 0.08 0.06 0.03 0.02 0.01 0.01 0.02 0.02 0.02 0.02 0.02 0.02 0.03 0.03 0.03 0.03 0.04 0.04 0.03 0.03 0.04 0.04 0.04 0.05 0.05 0.06 0.07 0.08 0.10 0.12 0.17 0.25 0.30 0.38 0.40
0.12 0.17 0.24 0.31 0.27 0.22 0.12 0.09 0.08 0.07 0.05 0.03 0.02 0.01 0.01 0.01 0.01 0.01 0.01 0.02 0.02 0.03 0.03 0.04 0.04 0.04 0.04 0.04 0.03 0.05 0.06 0.06 0.09 0.10 0.07 0.07 0.08 0.10 0.12 0.15 0.17 0.17 0.20 0.21

GEFSCGP_prec_meanprecacc_204.txt.gz
Total_Precipitation_Accumulation
0.30 0.66 0.92 0.81 0.74 0.76 0.73 0.71 0.71 0.61 0.55 0.56 0.50 0.44 0.46 0.47 0.48 0.43 0.42 0.42 0.35 0.31 0.35 0.34 0.29 0.32 0.35 0.46 0.56 0.72 1.08 1.49 1.68 1.57 1.52 1.58 1.68 1.66 1.56 1.53 1.50 1.55 1.55 1.55
0.35 0.46 0.38 0.42 0.47 0.58 0.68 0.73 0.73 0.63 0.46 0.44 0.43 0.38 0.37 0.38 0.40 0.37 0.34 0.37 0.34 0.30 0.27 0.26 0.21 0.23 0.29 0.47 0.62 0.73 1.02 1.45 1.65 1.75 1.87 2.08 2.26 2.14 2.01 1.99 1.93 2.01 2.03 2.19
0.32 0.28 0.23 0.34 0.50 0.61 0.67 0.70 0.68 0.59 0.44 0.38 0.37 0.39 0.33 0.36 0.33 0.32 0.31 0.33 0.30 0.24 0.23 0.23 0.20 0.23 0.28 0.40 0.52 0.66 0.84 1.12 1.46 1.73 2.00 2.29 2.51 2.49 2.37 2.21 2.17 2.23 2.30 2.46
0.31 0.26 0.26 0.33 0.41 0.51 0.67 0.47 0.43 0.41 0.51 0.51 0.39 0.57 0.39 0.37 0.36 0.33 0.32 0.30 0.29 0.25 0.24 0.27 0.24 0.24 0.28 0.34 0.43 0.58 0.75 0.97 1.23 1.47 1.89 2.33 2.63 2.73 2.64 2.52 2.47 2.44 2.46 2.51
0.28 0.24 0.27 0.31 0.32 0.38 0.50 0.39 0.38 0.39 0.46 0.43 0.31 0.41 0.39 0.31 0.35 0.33 0.30 0.28 0.27 0.26 0.27 0.30 0.30 0.32 0.34 0.35 0.40 0.52 0.67 0.89 1.14 1.36 1.72 2.12 2.41 2.64 2.79 2.61 2.48 2.50 2.53 2.56
0.25 0.19 0.20 0.26 0.29 0.31 0.39 0.40 0.37 0.38 0.43 0.48 0.24 0.36 0.47 0.32 0.28 0.28 0.26 0.25 0.26 0.28 0.33 0.37 0.47 0.50 0.49 0.43 0.47 0.57 0.66 0.80 0.96 1.11 1.32 1.55 1.89 2.16 2.51 2.51 2.43 2.55 2.54 2.47
0.27 0.24 0.20 0.22 0.28 0.31 0.37 0.53 0.67 0.66 0.64 0.44 0.19 0.34 0.49 0.34 0.26 0.26 0.27 0.27 0.28 0.31 0.35 0.43 0.58 0.63 0.64 0.55 0.51 0.53 0.66 0.72 0.79 0.90 1.00 1.14 1.39 1.58 1.96 2.27 2.25 2.17 2.23 2.29
0.29 0.30 0.19 0.19 0.23 0.27 0.30 0.48 0.73 0.81 0.71 0.48 0.34 0.51 0.55 0.39 0.31 0.28 0.26 0.29 0.34 0.38 0.43 0.59 0.76 0.78 0.77 0.68 0.59 0.58 0.68 0.73 0.74 0.80 0.84 0.93 1.06 1.17 1.34 1.56 1.68 1.72 1.78 2.01
0.29 0.26 0.17 0.17 0.17 0.18 0.25 0.32 0.37 0.53 0.51 0.54 0.53 0.61 0.54 0.34 0.32 0.33 0.35 0.39 0.50 0.59 0.63 0.75 0.90 0.93 0.83 0.76 0.67 0.65 0.71 0.81 0.81 0.82 0.84 0.93 0.97 0.99 1.10 1.14 1.29 1.47 1.51 1.57
0.31 0.28 0.19 0.18 0.18 0.17 0.18 0.23 0.38 0.57 0.72 0.73 0.60 0.63 0.59 0.45 0.44 0.43 0.47 0.53 0.65 0.75 0.82 0.91 1.05 1.06 0.91 0.78 0.69 0.66 0.70 0.82 1.00 1.12 1.07 1.00 1.06 1.14 1.36 1.41 1.27 1.24 1.40 1.47
0.42 0.39 0.23 0.20 0.20 0.20 0.22 0.32 0.46 0.60 0.62 0.85 0.94 0.85 0.67 0.63 0.64 0.65 0.67 0.72 0.80 0.92 0.93 0.91 1.00 1.07 0.95 0.76 0.68 0.62 0.64 0.75 0.89 0.93 0.99 0.98 1.02 1.11 1.39 1.62 1.57 1.39 1.38 1.41
0.39 0.52 0.35 0.23 0.23 0.25 0.30 0.42 0.62 0.91 0.87 0.81 0.97 0.96 0.71 0.64 0.68 0.69 0.68 0.67 0.71 0.83 0.85 0.88 0.92 0.88 0.79 0.63 0.55 0.51 0.52 0.64 0.76 0.75 0.81 0.89 0.91 0.99 1.11 1.23 1.25 1.19 1.12 1.09
0.48 0.66 0.65 0.53 0.51 0.41 0.48 0.51 0.58 0.75 0.87 0.89 1.01 0.99 0.68 0.60 0.54 0.56 0.58 0.61 0.63 0.64 0.64 0.65 0.66 0.63 0.61 0.59 0.56 0.50 0.50 0.57 0.65 0.68 0.74 0.81 0.84 0.86 0.88 0.89 0.82 0.87 0.89 0.95
0.48 0.56 0.66 0.72 0.70 0.67 0.64 0.54 0.49 0.68 0.94 0.88 0.86 0.82 0.66 0.58 0.53 0.55 0.57 0.58 0.61 0.54 0.47 0.47 0.49 0.51 0.54 0.54 0.53 0.50 0.48 0.55 0.64 0.79 0.86 0.90 0.91 0.91 0.91 0.89 0.85 0.85 0.87 0.92
0.37 0.39 0.34 0.33 0.34 0.45 0.50 0.43 0.42 0.50 0.59 0.74 0.73 0.69 0.57 0.53 0.57 0.60 0.57 0.53 0.50 0.44 0.38 0.38 0.37 0.41 0.41 0.42 0.44 0.44 0.43 0.49 0.58 0.71 0.83 0.87 0.89 0.91 0.88 0.80 0.78 0.83 0.80 0.79
0.24 0.29 0.25 0.22 0.23 0.30 0.37 0.38 0.39 0.39 0.43 0.54 0.60 0.60 0.47 0.43 0.41 0.42 0.40 0.34 0.34 0.34 0.30 0.27 0.27 0.29 0.29 0.28 0.29 0.30 0.37 0.47 0.53 0.61 0.72 0.88 0.91 0.83 0.79 0.72 0.71 0.74 0.73 0.70
0.22 0.31 0.39 0.33 0.27 0.30 0.54 0.54 0.54 0.56 0.49 0.49 0.44 0.35 0.23 0.23 0.25 0.29 0.29 0.29 0.33 0.30 0.25 0.23 0.23 0.24 0.25 0.26 0.29 0.32 0.40 0.49 0.48 0.55 0.70 0.88 0.86 0.74 0.69 0.73 0.78 0.74 0.73 0.73
0.19 0.31 0.44 0.38 0.40 0.70 0.87 0.63 0.60 0.56 0.35 0.22 0.15 0.14 0.13 0.19 0.18 0.17 0.19 0.21 0.24 0.23 0.19 0.18 0.17 0.17 0.18 0.21 0.26 0.28 0.32 0.37 0.40 0.46 0.57 0.73 0.74 0.70 0.73 0.72 0.70 0.65 0.61 0.61
0.19 0.33 0.48 0.42 0.47 0.69 0.67 0.43 0.36 0.36 0.25 0.10 0.08 0.09 0.11 0.14 0.13 0.11 0.12 0.13 0.13 0.13 0.10 0.09 0.09 0.09 0.09 0.09 0.12 0.15 0.18 0.21 0.26 0.34 0.44 0.54 0.56 0.59 0.61 0.59 0.59 0.55 0.51 0.53
0.33 0.40 0.59 0.56 0.68 0.69 0.36 0.19 0.17 0.24 0.31 0.10 0.05 0.05 0.05 0.07 0.11 0.08 0.06 0.07 0.08 0.07 0.06 0.04 0.04 0.04 0.03 0.04 0.06 0.08 0.12 0.15 0.19 0.26 0.34 0.43 0.46 0.47 0.49 0.53 0.54 0.54 0.51 0.49
0.32 0.41 0.52 0.56 0.77 0.62 0.26 0.13 0.13 0.26 0.33 0.12 0.04 0.03 0.03 0.03 0.05 0.04 0.05 0.05 0.06 0.06 0.04 0.03 0.03 0.02 0.03 0.04 0.05 0.05 0.08 0.12 0.13 0.16 0.22 0.30 0.37 0.44 0.50 0.55 0.56 0.59 0.56 0.51
0.38 0.41 0.41 0.49 0.64 0.58 0.24 0.17 0.21 0.22 0.13 0.07 0.04 0.03 0.02 0.02 0.02 0.02 0.03 0.03 0.05 0.05 0.04 0.04 0.03 0.03 0.03 0.05 0.04 0.04 0.06 0.08 0.09 0.10 0.16 0.24 0.32 0.41 0.49 0.59 0.62 0.60 0.60 0.59
0.39 0.41 0.43 0.51 0.64 0.44 0.27 0.24 0.22 0.17 0.12 0.06 0.03 0.02 0.02 0.02 0.01 0.01 0.02 0.03 0.04 0.05 0.04 0.04 0.04 0.03 0.03 0.04 0.05 0.04 0.06 0.06 0.06 0.08 0.13 0.18 0.22 0.26 0.32 0.41 0.51 0.56 0.59 0.59
0.25 0.25 0.30 0.39 0.37 0.24 0.22 0.20 0.16 0.12 0.09 0.04 0.03 0.02 0.02 0.02 0.02 0.01 0.02 0.02 0.03 0.03 0.04 0.04 0.04 0.04 0.04 0.04 0.04 0.05 0.05 0.05 0.06 0.08 0.10 0.13 0.14 0.14 0.16 0.26 0.33 0.39 0.47 0.53
0.20 0.22 0.25 0.32 0.31 0.21 0.15 0.14 0.11 0.10 0.07 0.03 0.02 0.02 0.02 0.02 0.02 0.02 0.02 0.02 0.02 0.03 0.03 0.03 0.03 0.04 0.05 0.04 0.04 0.06 0.06 0.07 0.07 0.07 0.07 0.08 0.10 0.11 0.13 0.18 0.26 0.31 0.38 0.42
0.14 0.19 0.26 0.33 0.30 0.25 0.14 0.11 0.09 0.08 0.06 0.04 0.03 0.02 0.02 0.01 0.01 0.01 0.01 0.02 0.02 0.03 0.03 0.04 0.04 0.04 0.05 0.05 0.05 0.06 0.08 0.08 0.11 0.13 0.09 0.08 0.09 0.12 0.14 0.16 0.18 0.18 0.21 0.22

GEFSCGP_prec_meanprecacc_210.txt.gz
Total_Precipitation_Accumulation
0.30 0.66 0.93 0.82 0.75 0.77 0.73 0.71 0.72 0.62 0.56 0.57 0.51 0.45 0.47 0.48 0.50 0.44 0.43 0.44 0.37 0.33 0.37 0.36 0.30 0.33 0.35 0.46 0.58 0.74 1.09 1.51 1.69 1.58 1.53 1.58 1.68 1.66 1.57 1.54 1.51 1.55 1.55 1.55
0.35 0.46 0.38 0.42 0.48 0.59 0.68 0.73 0.74 0.64 0.47 0.45 0.44 0.39 0.37 0.40 0.42 0.39 0.36 0.39 0.35 0.31 0.28 0.26 0.23 0.26 0.31 0.48 0.63 0.74 1.04 1.48 1.67 1.77 1.88 2.09 2.26 2.15 2.02 2.00 1.94 2.01 2.03 2.19
0.32 0.28 0.23 0.34 0.50 0.61 0.67 0.70 0.69 0.60 0.46 0.40 0.38 0.39 0.34 0.37 0.34 0.32 0.32 0.34 0.31 0.25 0.23 0.23 0.21 0.24 0.29 0.42 0.54 0.67 0.87 1.15 1.50 1.76 2.02 2.30 2.52 2.49 2.38 2.22 2.19 2.25 2.30 2.46
0.31 0.26 0.27 0.34 0.41 0.51 0.68 0.47 0.44 0.42 0.52 0.53 0.40 0.57 0.40 0.39 0.38 0.33 0.33 0.32 0.31 0.26 0.24 0.28 0.25 0.25 0.29 0.36 0.45 0.60 0.79 1.01 1.27 1.51 1.91 2.35 2.64 2.73 2.64 2.53 2.49 2.45 2.46 2.52
0.29 0.24 0.27 0.32 0.33 0.39 0.50 0.39 0.39 0.40 0.47 0.43 0.31 0.42 0.40 0.33 0.36 0.33 0.31 0.29 0.29 0.27 0.27 0.30 0.30 0.33 0.35 0.36 0.42 0.54 0.69 0.92 1.18 1.41 1.76 2.16 2.43 2.65 2.79 2.62 2.49 2.51 2.54 2.56
0.25 0.19 0.21 0.26 0.30 0.32 0.39 0.41 0.38 0.39 0.44 0.49 0.24 0.36 0.47 0.32 0.29 0.29 0.27 0.25 0.27 0.29 0.33 0.38 0.47 0.51 0.50 0.44 0.49 0.58 0.67 0.82 1.00 1.15 1.36 1.58 1.92 2.18 2.52 2.51 2.44 2.56 2.55 2.47
0.27 0.24 0.21 0.22 0.29 0.31 0.37 0.54 0.67 0.67 0.64 0.44 0.19 0.34 0.49 0.34 0.26 0.27 0.27 0.27 0.28 0.31 0.36 0.44 0.58 0.63 0.64 0.56 0.51 0.55 0.68 0.76 0.84 0.94 1.04 1.18 1.43 1.60 1.97 2.28 2.26 2.18 2.24 2.30
0.29 0.31 0.20 0.19 0.24 0.28 0.31 0.48 0.74 0.82 0.71 0.48 0.34 0.51 0.55 0.39 0.31 0.28 0.27 0.30 0.35 0.38 0.43 0.60 0.76 0.78 0.77 0.69 0.60 0.59 0.70 0.75 0.79 0.85 0.88 0.97 1.10 1.19 1.35 1.58 1.69 1.73 1.79 2.02
0.30 0.26 0.18 0.18 0.18 0.19 0.26 0.32 0.38 0.53 0.51 0.54 0.53 0.61 0.55 0.34 0.32 0.34 0.35 0.39 0.50 0.59 0.63 0.76 0.91 0.93 0.84 0.76 0.69 0.67 0.72 0.83 0.84 0.85 0.87 0.96 1.00 1.01 1.11 1.15 1.30 1.49 1.53 1.59
0.31 0.28 0.20 0.19 0.20 0.18 0.18 0.24 0.39 0.58 0.72 0.73 0.60 0.63 0.59 0.45 0.44 0.43 0.47 0.53 0.65 0.76 0.82 0.91 1.06 1.07 0.92 0.80 0.70 0.68 0.71 0.84 1.01 1.14 1.09 1.03 1.09 1.16 1.38 1.42 1.28 1.27 1.43 1.49
0.42 0.40 0.23 0.21 0.21 0.21 0.23 0.32 0.46 0.61 0.62 0.85 0.94 0.85 0.67 0.64 0.64 0.65 0.67 0.72 0.81 0.93 0.94 0.92 1.01 1.07 0.96 0.77 0.69 0.63 0.65 0.76 0.91 0.94 1.00 0.98 1.03 1.13 1.41 1.63 1.59 1.41 1.41 1.43
0.39 0.52 0.36 0.24 0.24 0.26 0.31 0.43 0.62 0.92 0.87 0.81 0.97 0.96 0.72 0.65 0.68 0.69 0.68 0.67 0.72 0.84 0.85 0.89 0.92 0.88 0.79 0.64 0.56 0.52 0.53 0.65 0.77 0.77 0.82 0.89 0.91 1.00 1.12 1.25 1.27 1.21 1.13 1.10
0.48 0.67 0.66 0.54 0.53 0.42 0.49 0.51 0.59 0.76 0.87 0.90 1.01 0.99 0.68 0.60 0.55 0.56 0.59 0.61 0.63 0.64 0.64 0.66 0.68 0.64 0.62 0.60 0.56 0.51 0.51 0.58 0.66 0.70 0.76 0.83 0.84 0.86 0.89 0.90 0.83 0.88 0.90 0.96
0.48 0.56 0.66 0.73 0.72 0.68 0.65 0.54 0.50 0.69 0.94 0.88 0.86 0.82 0.66 0.58 0.53 0.55 0.57 0.58 0.61 0.55 0.47 0.48 0.49 0.51 0.55 0.55 0.54 0.52 0.49 0.56 0.65 0.81 0.87 0.91 0.92 0.91 0.92 0.90 0.86 0.86 0.88 0.93
0.38 0.39 0.34 0.33 0.36 0.47 0.50 0.43 0.42 0.50 0.59 0.75 0.73 0.70 0.57 0.53 0.57 0.60 0.57 0.53 0.51 0.44 0.38 0.38 0.38 0.42 0.43 0.43 0.45 0.45 0.45 0.51 0.59 0.72 0.84 0.88 0.90 0.93 0.89 0.82 0.80 0.84 0.81 0.80
0.25 0.30 0.26 0.24 0.24 0.32 0.38 0.39 0.39 0.39 0.43 0.54 0.61 0.60 0.47 0.43 0.42 0.42 0.40 0.34 0.34 0.35 0.30 0.28 0.28 0.30 0.31 0.29 0.30 0.31 0.39 0.48 0.54 0.62 0.73 0.89 0.92 0.85 0.80 0.73 0.72 0.75 0.74 0.71
0.22 0.32 0.41 0.34 0.29 0.32 0.54 0.54 0.54 0.56 0.49 0.49 0.44 0.35 0.23 0.23 0.25 0.29 0.29 0.29 0.33 0.31 0.25 0.23 0.24 0.25 0.26 0.27 0.31 0.34 0.42 0.50 0.49 0.56 0.70 0.89 0.88 0.76 0.70 0.75 0.79 0.75 0.73 0.74
0.19 0.32 0.46 0.39 0.42 0.71 0.87 0.63 0.60 0.56 0.36 0.22 0.15 0.14 0.13 0.19 0.18 0.17 0.19 0.21 0.24 0.23 0.19 0.18 0.17 0.17 0.18 0.22 0.26 0.30 0.34 0.38 0.41 0.48 0.59 0.75 0.75 0.72 0.75 0.74 0.72 0.67 0.62 0.61
0.20 0.34 0.49 0.44 0.48 0.70 0.67 0.43 0.36 0.36 0.25 0.10 0.08 0.09 0.11 0.14 0.13 0.11 0.12 0.13 0.13 0.13 0.10 0.09 0.10 0.09 0.09 0.10 0.12 0.16 0.19 0.22 0.27 0.36 0.45 0.56 0.57 0.61 0.63 0.61 0.60 0.56 0.52 0.54
0.33 0.41 0.61 0.57 0.69 0.69 0.36 0.19 0.17 0.24 0.31 0.10 0.05 0.05 0.05 0.07 0.11 0.08 0.06 0.07 0.08 0.07 0.06 0.04 0.04 0.04 0.04 0.04 0.07 0.09 0.13 0.16 0.19 0.27 0.35 0.45 0.47 0.49 0.50 0.55 0.56 0.56 0.52 0.50
0.33 0.42 0.53 0.57 0.78 0.63 0.26 0.13 0.13 0.26 0.33 0.12 0.05 0.03 0.03 0.03 0.05 0.04 0.05 0.05 0.06 0.06 0.04 0.03 0.03 0.03 0.03 0.05 0.05 0.05 0.09 0.12 0.14 0.17 0.23 0.30 0.38 0.45 0.52 0.57 0.57 0.60 0.57 0.53
0.39 0.43 0.43 0.51 0.66 0.60 0.24 0.17 0.22 0.22 0.13 0.07 0.04 0.03 0.02 0.02 0.02 0.02 0.03 0.03 0.05 0.05 0.04 0.04 0.03 0.03 0.04 0.05 0.05 0.04 0.06 0.09 0.10 0.11 0.17 0.25 0.34 0.42 0.51 0.60 0.63 0.61 0.61 0.59
0.41 0.44 0.45 0.53 0.65 0.45 0.27 0.24 0.22 0.17 0.12 0.06 0.03 0.02 0.02 0.02 0.01 0.01 0.02 0.03 0.04 0.05 0.04 0.04 0.04 0.03 0.03 0.04 0.05 0.05 0.06 0.07 0.07 0.09 0.13 0.20 0.24 0.27 0.33 0.42 0.52 0.58 0.60 0.60
0.26 0.27 0.32 0.41 0.38 0.24 0.22 0.21 0.16 0.12 0.10 0.05 0.03 0.02 0.02 0.02 0.02 0.01 0.02 0.02 0.03 0.03 0.04 0.04 0.04 0.04 0.04 0.04 0.04 0.06 0.06 0.06 0.06 0.09 0.12 0.14 0.16 0.16 0.18 0.27 0.35 0.41 0.49 0.54
0.22 0.23 0.27 0.33 0.32 0.21 0.15 0.15 0.12 0.10 0.07 0.04 0.03 0.02 0.02 0.02 0.02 0.02 0.02 0.02 0.03 0.03 0.03 0.03 0.03 0.04 0.05 0.04 0.05 0.06 0.07 0.08 0.08 0.08 0.08 0.09 0.12 0.13 0.15 0.21 0.29 0.33 0.41 0.44
0.16 0.20 0.27 0.34 0.31 0.25 0.14 0.12 0.10 0.09 0.07 0.05 0.03 0.03 0.03 0.02 0.02 0.01 0.02 0.02 0.03 0.03 0.03 0.04 0.04 0.04 0.05 0.05 0.05 0.07 0.09 0.09 0.12 0.14 0.11 0.10 0.12 0.15 0.17 0.19 0.22 0.21 0.24 0.25

GEFSCGP_prec_meanprecacc_216.txt.gz
Total_Precipitation_Accumulation
0.31 0.67 0.93 0.83 0.76 0.77 0.73 0.72 0.73 0.62 0.56 0.58 0.51 0.45 0.48 0.50 0.51 0.45 0.45 0.45 0.38 0.35 0.38 0.36 0.31 0.33 0.36 0.47 0.58 0.75 1.10 1.52 1.70 1.59 1.54 1.59 1.69 1.67 1.57 1.55 1.51 1.56 1.55 1.55
0.36 0.46 0.38 0.42 0.48 0.59 0.68 0.74 0.75 0.64 0.48 0.46 0.45 0.39 0.38 0.41 0.44 0.40 0.37 0.39 0.36 0.33 0.29 0.27 0.23 0.26 0.31 0.48 0.63 0.75 1.04 1.49 1.68 1.78 1.89 2.10 2.27 2.15 2.02 2.00 1.95 2.02 2.03 2.19
0.32 0.29 0.23 0.34 0.51 0.62 0.67 0.70 0.70 0.61 0.47 0.41 0.39 0.40 0.35 0.38 0.35 0.33 0.33 0.35 0.31 0.25 0.23 0.24 0.22 0.25 0.30 0.42 0.54 0.68 0.88 1.17 1.52 1.78 2.04 2.32 2.53 2.50 2.38 2.22 2.19 2.25 2.31 2.47
0.32 0.27 0.27 0.34 0.42 0.52 0.69 0.48 0.44 0.43 0.54 0.55 0.41 0.59 0.40 0.40 0.38 0.34 0.33 0.33 0.31 0.27 0.25 0.28 0.25 0.25 0.29 0.37 0.46 0.62 0.81 1.04 1.29 1.52 1.93 2.36 2.65 2.74 2.64 2.54 2.49 2.45 2.47 2.52
0.29 0.25 0.27 0.32 0.33 0.39 0.51 0.40 0.39 0.41 0.48 0.45 0.32 0.43 0.41 0.33 0.37 0.33 0.31 0.30 0.29 0.27 0.28 0.30 0.30 0.33 0.36 0.37 0.43 0.56 0.72 0.94 1.20 1.43 1.78 2.17 2.44 2.65 2.80 2.62 2.49 2.51 2.54 2.57
0.25 0.19 0.21 0.27 0.30 0.32 0.40 0.42 0.40 0.40 0.45 0.50 0.25 0.37 0.48 0.33 0.29 0.30 0.27 0.26 0.27 0.29 0.33 0.38 0.47 0.51 0.50 0.44 0.49 0.59 0.69 0.84 1.02 1.17 1.38 1.61 1.93 2.19 2.53 2.52 2.45 2.57 2.55 2.48
0.28 0.25 0.21 0.22 0.29 0.32 0.38 0.55 0.69 0.68 0.65 0.45 0.20 0.34 0.49 0.35 0.27 0.28 0.28 0.28 0.28 0.31 0.36 0.44 0.58 0.63 0.64 0.56 0.52 0.55 0.69 0.78 0.85 0.96 1.06 1.20 1.45 1.61 1.98 2.28 2.26 2.19 2.24 2.30
0.30 0.31 0.20 0.20 0.24 0.28 0.31 0.49 0.75 0.83 0.72 0.48 0.34 0.51 0.55 0.39 0.32 0.29 0.27 0.30 0.35 0.38 0.43 0.60 0.76 0.78 0.77 0.69 0.60 0.59 0.71 0.78 0.81 0.87 0.90 0.99 1.12 1.21 1.37 1.58 1.70 1.73 1.80 2.02
0.31 0.27 0.18 0.18 0.18 0.19 0.27 0.33 0.38 0.54 0.51 0.54 0.53 0.62 0.55 0.34 0.32 0.34 0.36 0.40 0.50 0.59 0.63 0.76 0.91 0.93 0.84 0.77 0.69 0.67 0.73 0.85 0.87 0.88 0.91 0.99 1.03 1.03 1.13 1.16 1.30 1.49 1.53 1.59
0.32 0.29 0.20 0.20 0.20 0.18 0.19 0.25 0.40 0.59 0.73 0.74 0.61 0.63 0.59 0.45 0.44 0.43 0.48 0.54 0.66 0.76 0.83 0.91 1.06 1.07 0.92 0.80 0.70 0.68 0.72 0.85 1.04 1.15 1.11 1.06 1.12 1.19 1.40 1.43 1.29 1.27 1.43 1.49
0.44 0.41 0.24 0.22 0.21 0.21 0.23 0.33 0.47 0.61 0.63 0.86 0.95 0.85 0.67 0.64 0.65 0.66 0.67 0.73 0.82 0.93 0.94 0.92 1.01 1.07 0.96 0.77 0.69 0.64 0.66 0.77 0.92 0.96 1.01 1.00 1.05 1.15 1.42 1.65 1.60 1.42 1.41 1.43
0.42 0.54 0.37 0.25 0.25 0.26 0.31 0.43 0.63 0.92 0.88 0.81 0.98 0.96 0.72 0.65 0.69 0.69 0.68 0.67 0.72 0.85 0.86 0.89 0.93 0.88 0.79 0.64 0.56 0.53 0.53 0.66 0.78 0.78 0.83 0.91 0.92 1.02 1.14 1.26 1.28 1.23 1.14 1.12
0.51 0.69 0.67 0.55 0.54 0.43 0.49 0.51 0.59 0.76 0.88 0.90 1.02 1.00 0.69 0.61 0.55 0.56 0.59 0.62 0.64 0.65 0.65 0.66 0.68 0.64 0.62 0.60 0.58 0.52 0.51 0.59 0.67 0.71 0.77 0.84 0.85 0.87 0.90 0.92 0.86 0.90 0.92 0.98
0.51 0.58 0.67 0.73 0.73 0.69 0.65 0.55 0.50 0.69 0.95 0.88 0.86 0.82 0.67 0.58 0.53 0.55 0.57 0.58 0.61 0.55 0.48 0.48 0.50 0.52 0.56 0.56 0.56 0.53 0.50 0.57 0.66 0.81 0.89 0.92 0.93 0.92 0.93 0.91 0.87 0.88 0.91 0.95
0.41 0.41 0.34 0.34 0.36 0.48 0.51 0.44 0.43 0.51 0.60 0.75 0.73 0.70 0.57 0.53 0.57 0.60 0.58 0.53 0.51 0.44 0.38 0.39 0.39 0.42 0.43 0.44 0.45 0.46 0.45 0.52 0.60 0.74 0.85 0.89 0.91 0.94 0.90 0.83 0.81 0.85 0.83 0.82
0.29 0.31 0.27 0.24 0.25 0.33 0.40 0.39 0.40 0.40 0.44 0.54 0.61 0.60 0.47 0.43 0.42 0.42 0.40 0.34 0.34 0.35 0.30 0.28 0.28 0.30 0.31 0.30 0.31 0.32 0.39 0.49 0.54 0.63 0.75 0.92 0.95 0.86 0.82 0.74 0.72 0.75 0.74 0.72
0.26 0.34 0.42 0.35 0.29 0.33 0.56 0.54 0.54 0.56 0.50 0.50 0.44 0.35 0.23 0.23 0.26 0.29 0.29 0.29 0.33 0.31 0.25 0.23 0.24 0.25 0.26 0.27 0.32 0.35 0.42 0.51 0.50 0.57 0.71 0.91 0.90 0.78 0.72 0.76 0.79 0.76 0.74 0.74
0.22 0.34 0.48 0.41 0.43 0.73 0.88 0.63 0.60 0.56 0.36 0.22 0.15 0.14 0.13 0.19 0.18 0.17 0.19 0.21 0.24 0.23 0.19 0.18 0.17 0.17 0.18 0.22 0.27 0.31 0.35 0.39 0.42 0.49 0.59 0.76 0.77 0.74 0.77 0.76 0.73 0.68 0.63 0.62
0.23 0.36 0.53 0.46 0.50 0.71 0.68 0.44 0.36 0.36 0.25 0.11 0.08 0.09 0.11 0.14 0.13 0.11 0.12 0.13 0.13 0.14 0.10 0.09 0.10 0.10 0.10 0.10 0.13 0.17 0.20 0.23 0.27 0.36 0.46 0.56 0.58 0.62 0.64 0.62 0.62 0.58 0.54 0.55
0.36 0.44 0.64 0.59 0.70 0.70 0.37 0.19 0.17 0.25 0.31 0.10 0.05 0.05 0.05 0.07 0.11 0.08 0.07 0.07 0.08 0.07 0.06 0.04 0.04 0.05 0.04 0.05 0.07 0.09 0.13 0.17 0.19 0.27 0.36 0.46 0.48 0.50 0.51 0.56 0.58 0.58 0.54 0.51
0.36 0.46 0.56 0.59 0.80 0.64 0.26 0.13 0.14 0.27 0.34 0.12 0.05 0.03 0.03 0.03 0.05 0.05 0.06 0.05 0.06 0.06 0.05 0.03 0.03 0.03 0.04 0.05 0.05 0.06 0.10 0.13 0.15 0.17 0.24 0.31 0.39 0.46 0.53 0.58 0.59 0.62 0.59 0.54
0.42 0.45 0.45 0.53 0.68 0.62 0.25 0.18 0.23 0.23 0.13 0.07 0.04 0.03 0.02 0.02 0.02 0.02 0.03 0.04 0.05 0.05 0.04 0.04 0.04 0.03 0.04 0.06 0.05 0.05 0.08 0.12 0.12 0.12 0.18 0.26 0.35 0.43 0.52 0.62 0.64 0.63 0.62 0.61
0.43 0.46 0.47 0.55 0.66 0.46 0.27 0.24 0.23 0.17 0.12 0.06 0.03 0.02 0.02 0.02 0.01 0.01 0.02 0.03 0.04 0.05 0.05 0.04 0.04 0.03 0.04 0.05 0.05 0.06 0.07 0.08 0.08 0.10 0.14 0.21 0.25 0.28 0.34 0.43 0.53 0.59 0.61 0.61
0.27 0.27 0.32 0.41 0.39 0.24 0.22 0.21 0.16 0.13 0.10 0.05 0.03 0.02 0.02 0.02 0.02 0.01 0.02 0.02 0.03 0.04 0.04 0.04 0.04 0.04 0.05 0.04 0.05 0.06 0.07 0.06 0.07 0.10 0.12 0.15 0.17 0.17 0.19 0.29 0.36 0.42 0.49 0.55
0.22 0.24 0.28 0.34 0.33 0.22 0.16 0.15 0.12 0.11 0.07 0.04 0.03 0.02 0.02 0.02 0.02 0.02 0.02 0.02 0.03 0.03 0.03 0.03 0.04 0.05 0.05 0.05 0.05 0.06 0.07 0.08 0.09 0.09 0.09 0.11 0.13 0.15 0.17 0.22 0.30 0.34 0.42 0.46
0.16 0.21 0.29 0.35 0.32 0.27 0.16 0.13 0.10 0.09 0.07 0.05 0.04 0.03 0.03 0.02 0.02 0.02 0.02 0.02 0.03 0.03 0.04 0.04 0.04 0.05 0.05 0.05 0.05 0.07 0.09 0.09 0.12 0.15 0.12 0.11 0.13 0.16 0.18 0.20 0.23 0.22 0.26 0.27